CW3202 Weather Reports


Display with metric or nautical units.
time (UTC)temp
F
wind
direction
speed
MPH
gust
MPH
rain 1hr
in
rain 24hr
in
rain mn
in
humidity
%
barometer
mb
20260902184824 58 355 9.0 9.0 0.00 0.00 0.00 95 1004.2
20260902184324 58 5 5.0 9.0 0.00 0.00 0.00 95 1004.2
20260902183824 58 9 1.0 7.0 0.00 0.00 0.00 95 1004.2
20260902183324 58 5 5.0 9.0 0.00 0.00 0.00 95 1004.4
20260902182824 58 41 5.0 9.0 0.00 0.00 0.00 95 1004.6
20260902182325 58 30 9.0 9.0 0.00 0.00 0.00 95 1004.7
20260902181824 58 10 7.0 9.0 0.00 0.00 0.00 95 1004.5
20260902181324 58 42 4.0 7.0 0.00 0.00 0.00 95 1004.8
20260902180824 58 37 4.0 6.0 0.00 0.00 0.00 94 1005.0
20260902180324 58 53 4.0 6.0 0.00 0.00 0.00 95 1005.1
20260902175824 58 52 6.0 7.0 0.00 0.00 0.00 94 1005.1
20260902175324 58 17 5.0 8.0 0.00 0.00 0.00 94 1005.1
20260902174824 58 30 6.0 8.0 0.00 0.00 0.00 94 1005.1
20260902174324 58 46 3.0 7.0 0.00 0.00 0.00 94 1005.2
20260902173824 58 36 3.0 10.0 0.00 0.00 0.00 94 1005.2
20260902173124 58 35 7.0 10.0 0.00 0.00 0.00 94 1005.2
20260902172625 58 28 6.0 6.0 0.00 0.00 0.00 94 1005.2
20260902172124 58 38 2.0 6.0 0.00 0.00 0.00 95 1005.3
20260902171624 58 46 3.0 6.0 0.00 0.00 0.00 95 1005.3
20260902171124 58 44 3.0 5.0 0.00 0.00 0.00 95 1005.3
20260902170625 58 17 4.0 4.0 0.00 0.00 0.00 95 1005.3
20260902170125 58 10 4.0 5.0 0.00 0.00 0.00 96 1005.3
20260902165625 58 26 3.0 5.0 0.00 0.00 0.00 96 1005.4
20260902165124 58 19 5.0 5.0 0.00 0.00 0.00 96 1005.3
20260902164625 58 20 3.0 4.0 0.00 0.00 0.00 96 1005.2
20260902163925 58 40 3.0 4.0 0.00 0.00 0.00 96 1005.4
20260902163425 58 30 2.0 6.0 0.00 0.00 0.00 96 1005.3
20260902162925 58 25 3.0 6.0 0.00 0.00 0.00 95 1005.3
20260902162424 58 44 5.0 5.0 0.00 0.00 0.00 95 1005.4
20260902161924 58 33 3.0 5.0 0.00 0.00 0.00 94 1005.4
20260902161224 58 18 2.0 5.0 0.00 0.00 0.00 94 1005.6
20260902160725 58 29 4.0 5.0 0.00 0.00 0.00 94 1005.5
20260902160224 59 27 3.0 5.0 0.00 0.00 0.00 93 1005.6
20260902155724 59 37 3.0 8.0 0.00 0.00 0.00 92 1005.7
20260902155224 59 74 5.0 8.0 0.00 0.00 0.00 92 1005.7
20260902154725 59 29 8.0 8.0 0.00 0.00 0.00 92 1005.5
20260902154225 59 26 5.0 5.0 0.00 0.00 0.00 93 1005.7
20260902153724 59 14 2.0 4.0 0.00 0.00 0.00 94 1005.8
20260902153224 58 38 1.0 4.0 0.00 0.00 0.00 94 1005.8
20260902152724 58 34 2.0 4.0 0.00 0.00 0.00 94 1005.8
20260902152224 58 30 1.0 4.0 0.00 0.00 0.00 95 1005.8
20260902151724 58 16 2.0 3.0 0.00 0.00 0.00 96 1005.8
20260902151224 58 17 2.0 4.0 0.00 0.00 0.00 97 1005.8
20260902150724 57 17 2.0 4.0 0.00 0.00 0.00 96 1005.9
20260902150224 57 22 3.0 4.0 0.00 0.00 0.00 97 1005.9
20260902145725 57 30 3.0 4.0 0.00 0.00 0.00 97 1006.0
20260902145225 57 11 3.0 3.0 0.00 0.00 0.00 97 1006.1
20260902144725 56 32 2.0 3.0 0.00 0.00 0.00 97 1006.2
20260902144225 56 34 3.0 3.0 0.00 0.00 0.00 97 1006.3
20260902143724 56 34 2.0 3.0 0.00 0.00 0.00 97 1006.3
20260902143024 56 34 2.0 4.0 0.00 0.00 0.00 97 1006.3
20260902142524 56 34 4.0 4.0 0.00 0.00 0.00 97 1006.3
20260902142024 56 34 2.0 3.0 0.00 0.00 0.00 97 1006.3
20260902141525 56 34 2.0 3.0 0.00 0.00 0.00 97 1006.3
20260902141025 56 38 2.0 3.0 0.00 0.00 0.00 98 1006.5
20260902140125 56 28 2.0 2.0 0.00 0.00 0.00 98 1006.6
20260902135625 56 28 2.0 2.0 0.00 0.00 0.00 98 1006.6
20260902135124 56 28 2.0 2.0 0.00 0.00 0.00 98 1006.7
20260902134625 56 30 2.0 3.0 0.00 0.00 0.00 98 1006.8
20260902134124 56 33 2.0 3.0 0.00 0.00 0.00 98 1006.8
20260902133625 56 360 3.0 3.0 0.00 0.00 0.00 98 1006.8
20260902133124 56 360 2.0 3.0 0.00 0.00 0.00 98 1006.9
20260902132624 56 13 2.0 3.0 0.00 0.00 0.00 98 1007.2
20260902132124 56 14 2.0 3.0 0.00 0.00 0.00 98 1007.2
20260902131626 56 15 1.0 4.0 0.00 0.00 0.00 98 1007.2
20260902131124 56 15 2.0 4.0 0.00 0.00 0.00 98 1007.3
20260902130624 56 17 3.0 3.0 0.00 0.00 0.00 98 1007.5
20260902130124 56 17 3.0 3.0 0.00 0.00 0.00 98 1007.6
20260902125624 56 55 1.0 4.0 0.00 0.00 0.00 98 1007.6
20260902125125 56 32 3.0 4.0 0.00 0.00 0.00 98 1007.6
20260902124625 56 32 4.0 4.0 0.00 0.00 0.00 99 1007.7
20260902124124 56 53 3.0 5.0 0.00 0.00 0.00 99 1007.7
20260902123624 56 38 3.0 5.0 0.00 0.00 0.00 99 1007.6
20260902123124 56 16 3.0 4.0 0.00 0.00 0.00 99 1007.5
20260902122624 55 15 3.0 4.0 0.00 0.00 0.00 99 1007.7
20260902122124 55 12 3.0 4.0 0.00 0.00 0.00 99 1007.8
20260902121625 55 9 3.0 4.0 0.00 0.00 0.00 99 1007.8
20260902120725 55 13 3.0 3.0 0.00 0.00 0.00 99 1008.1
20260902120224 55 49 2.0 3.0 0.00 0.00 0.00 99 1008.2
20260902115725 55 17 2.0 2.0 0.00 0.00 0.00 99 1008.2
20260902115225 55 17 1.0 4.0 0.00 0.00 0.00 99 1008.3
20260902114724 55 17 2.0 4.0 0.00 0.00 0.00 99 1008.3
20260902114224 54 17 3.0 3.0 0.00 0.00 0.00 99 1008.4
20260902113724 54 161 0.0 0.0 0.00 0.00 0.00 99 1008.4
20260902113024 54 161 0.0 0.0 0.00 0.00 0.00 99 1008.4
20260902112524 54 161 0.0 0.0 0.00 0.00 0.00 99 1008.4
20260902112024 54 161 0.0 1.0 0.00 0.00 0.00 99 1008.3
20260902111524 53 161 0.0 1.0 0.00 0.00 0.00 99 1008.5
20260902111024 53 161 0.0 1.0 0.00 0.00 0.00 99 1008.5
20260902110524 53 161 0.0 1.0 0.00 0.00 0.00 99 1008.5
20260902110024 53 161 0.0 1.0 0.00 0.00 0.00 99 1008.6
20260902105525 53 161 1.0 1.0 0.00 0.00 0.00 99 1008.6
20260902105024 53 161 0.0 0.0 0.00 0.00 0.00 99 1008.6
20260902104524 53 161 0.0 0.0 0.00 0.00 0.00 99 1008.6
20260902104024 53 161 0.0 2.0 0.00 0.00 0.00 99 1008.7
20260902103525 53 161 0.0 2.0 0.00 0.00 0.00 99 1008.7
20260902103024 53 161 0.0 2.0 0.00 0.00 0.00 99 1008.7
20260902102524 53 161 2.0 2.0 0.00 0.00 0.00 99 1008.8
20260902102025 52 161 2.0 2.0 0.00 0.00 0.00 99 1008.7
20260902101524 52 161 1.0 1.0 0.00 0.00 0.00 98 1008.9
20260902101024 52 161 0.0 0.0 0.00 0.00 0.00 98 1009.0
20260902100525 52 161 0.0 0.0 0.00 0.00 0.00 98 1009.0
20260902100025 52 161 0.0 1.0 0.00 0.00 0.00 98 1008.8
20260902095525 52 161 0.0 1.0 0.00 0.00 0.00 98 1008.8
20260902095025 52 161 0.0 1.0 0.00 0.00 0.00 98 1008.8
20260902094524 52 161 1.0 2.0 0.00 0.00 0.00 97 1008.8
20260902093824 53 161 1.0 2.0 0.00 0.00 0.00 98 1009.0
20260902093324 53 161 0.0 1.0 0.00 0.00 0.00 98 1008.9
20260902092824 53 161 0.0 3.0 0.00 0.00 0.00 97 1008.9
20260902092325 54 147 0.0 3.0 0.00 0.00 0.00 98 1009.0
20260902091825 54 147 1.0 2.0 0.00 0.00 0.00 98 1009.1
20260902091324 54 148 0.0 1.0 0.00 0.00 0.00 98 1009.2
20260902090824 54 148 1.0 2.0 0.00 0.00 0.00 98 1009.2
20260902090125 55 148 1.0 2.0 0.00 0.00 0.00 98 1009.4
20260902085624 55 54 1.0 2.0 0.00 0.00 0.00 98 1009.4
20260902085125 55 54 1.0 2.0 0.00 0.00 0.00 98 1009.4
20260902084624 55 54 0.0 2.0 0.00 0.00 0.00 98 1009.4
20260902083724 55 54 2.0 2.0 0.00 0.00 0.00 99 1009.5
20260902083225 55 54 1.0 1.0 0.00 0.00 0.00 99 1009.6
20260902082724 55 54 1.0 1.0 0.00 0.00 0.00 99 1009.7
20260902082224 55 54 0.0 2.0 0.00 0.00 0.00 99 1009.7
20260902081724 55 54 1.0 2.0 0.00 0.00 0.00 99 1009.7
20260902081224 55 54 2.0 2.0 0.00 0.00 0.00 99 1009.7
20260902080724 54 54 1.0 2.0 0.00 0.00 0.00 99 1009.7
20260902080025 54 54 1.0 1.0 0.00 0.00 0.00 98 1009.7
20260902075525 54 54 0.0 0.0 0.00 0.00 0.00 98 1009.7
20260902074824 54 54 0.0 1.0 0.00 0.00 0.00 98 1009.8
20260902074125 54 54 1.0 1.0 0.00 0.00 0.00 98 1009.9
20260902073425 54 54 0.0 3.0 0.00 0.00 0.00 98 1009.9
20260902072924 54 54 0.0 3.0 0.00 0.00 0.00 98 1010.0
20260902072225 53 54 1.0 2.0 0.00 0.00 0.00 98 1010.1
20260902071725 53 54 0.0 1.0 0.00 0.00 0.00 98 1010.1
20260902071225 53 54 0.0 2.0 0.00 0.00 0.00 98 1010.2
20260902070724 54 54 1.0 2.0 0.00 0.00 0.00 97 1010.1
20260902070225 54 54 2.0 2.0 0.00 0.00 0.00 97 1010.0
20260902065725 54 54 2.0 2.0 0.00 0.00 0.00 98 1010.1
20260902065224 54 55 0.0 1.0 0.00 0.00 0.00 98 1010.1
20260902064724 54 55 1.0 1.0 0.00 0.00 0.00 97 1010.1
20260902064224 55 55 0.0 0.0 0.00 0.00 0.00 98 1010.1
20260902063524 55 55 0.0 1.0 0.00 0.00 0.00 97 1010.1
20260902063025 55 55 0.0 1.0 0.00 0.00 0.00 98 1010.0
20260902062525 55 55 0.0 2.0 0.00 0.00 0.00 98 1010.1
20260902061825 55 55 1.0 2.0 0.00 0.00 0.00 98 1010.0
20260902061325 56 55 1.0 2.0 0.00 0.00 0.00 98 1010.1
20260902060624 56 54 2.0 2.0 0.00 0.00 0.00 98 1010.0
20260902055925 56 55 1.0 2.0 0.00 0.00 0.00 98 1010.1
20260902055224 56 55 2.0 2.0 0.00 0.00 0.00 97 1010.0
20260902054725 56 55 0.0 2.0 0.00 0.00 0.00 97 1010.0
20260902054225 56 55 1.0 2.0 0.00 0.00 0.00 98 1010.2
20260902053725 55 55 0.0 3.0 0.00 0.00 0.00 97 1010.2
20260902053025 56 55 1.0 3.0 0.00 0.00 0.00 97 1010.3
20260902052324 56 55 0.0 2.0 0.00 0.00 0.00 97 1010.4
20260902051824 56 55 2.0 2.0 0.00 0.00 0.00 97 1010.4
20260902051324 56 55 1.0 1.0 0.00 0.00 0.00 97 1010.4
20260902050824 56 55 0.0 1.0 0.00 0.00 0.00 97 1010.4
20260902050124 56 55 0.0 1.0 0.00 0.00 0.00 97 1010.6
20260902045625 56 55 0.0 1.0 0.00 0.00 0.00 97 1010.6
20260902045124 56 55 0.0 1.0 0.00 0.00 0.00 97 1010.6
20260902044624 56 55 1.0 2.0 0.00 0.00 0.00 97 1010.7
20260902044125 56 55 1.0 2.0 0.00 0.00 0.00 97 1010.7
20260902043625 56 55 2.0 2.0 0.00 0.00 0.00 97 1010.7
20260902043124 56 55 0.0 1.0 0.00 0.00 0.00 97 1010.8
20260902042424 56 55 0.0 1.0 0.00 0.00 0.00 97 1010.8
20260902041724 56 55 1.0 1.0 0.00 0.00 0.00 97 1010.8
20260902041225 56 55 0.0 1.0 0.00 0.00 0.00 96 1010.8
20260902040725 57 55 1.0 1.0 0.00 0.00 0.00 96 1010.7
20260902040225 57 55 0.0 2.0 0.00 0.00 0.00 96 1010.7
20260902035725 57 55 0.0 2.0 0.00 0.00 0.00 96 1010.7
20260902035125 57 55 1.0 1.0 0.00 0.00 0.00 94 1010.7
20260902034525 57 55 0.0 1.0 0.00 0.00 0.00 94 1010.7
20260902034025 58 55 1.0 2.0 0.00 0.00 0.00 94 1010.6
20260902033525 58 55 0.0 2.0 0.00 0.00 0.00 95 1010.5
20260902033024 58 55 0.0 1.0 0.00 0.00 0.00 94 1010.5
20260902032525 59 55 1.0 1.0 0.00 0.00 0.00 94 1010.4
20260902032024 59 54 0.0 1.0 0.00 0.00 0.00 94 1010.5
20260902031524 60 54 0.0 2.0 0.00 0.00 0.00 94 1010.5
20260902031024 60 54 1.0 2.0 0.00 0.00 0.00 93 1010.5
20260902030524 60 54 0.0 3.0 0.00 0.00 0.00 93 1010.5
20260902025225 61 54 3.0 3.0 0.00 0.00 0.00 92 1010.5
20260902024724 61 54 2.0 3.0 0.00 0.00 0.00 92 1010.4
20260902024025 61 55 2.0 4.0 0.00 0.00 0.00 92 1010.5
20260902023525 62 44 3.0 4.0 0.00 0.00 0.00 91 1010.5
20260902023024 62 47 2.0 3.0 0.00 0.00 0.00 91 1010.5
20260902022524 62 72 1.0 3.0 0.00 0.00 0.00 91 1010.5
20260902022025 62 34 3.0 3.0 0.00 0.00 0.00 91 1010.5
20260902021525 62 22 3.0 3.0 0.00 0.00 0.00 91 1010.4
20260902021024 62 22 2.0 4.0 0.00 0.00 0.00 91 1010.4
20260902020524 62 56 2.0 4.0 0.00 0.00 0.00 91 1010.4
20260902020025 62 5 4.0 4.0 0.00 0.00 0.00 91 1010.4
20260902015524 62 30 2.0 4.0 0.00 0.00 0.00 91 1010.4
20260902014825 62 46 3.0 5.0 0.00 0.00 0.00 90 1010.4
20260902014325 62 67 3.0 5.0 0.00 0.00 0.00 90 1010.4
20260902013825 62 29 3.0 4.0 0.00 0.00 0.00 90 1010.4
20260902013324 62 50 3.0 3.0 0.00 0.00 0.00 89 1010.5
20260902012825 62 49 3.0 3.0 0.00 0.00 0.00 88 1010.5
20260902012325 62 57 2.0 3.0 0.00 0.00 0.00 88 1010.4
20260902011824 62 37 3.0 4.0 0.00 0.00 0.00 89 1010.3
20260902011324 62 34 2.0 4.0 0.00 0.00 0.00 88 1010.4
20260902010624 62 29 3.0 4.0 0.00 0.00 0.00 88 1010.3
20260902010125 62 9 4.0 4.0 0.00 0.00 0.00 88 1010.2
20260902005625 63 18 3.0 4.0 0.00 0.00 0.00 87 1010.3
20260902005124 63 355 4.0 5.0 0.00 0.00 0.00 86 1010.2
20260902004624 63 360 3.0 5.0 0.00 0.00 0.00 86 1010.2
20260902004124 63 20 3.0 4.0 0.00 0.00 0.00 84 1010.3
20260902003624 63 51 2.0 4.0 0.00 0.00 0.00 85 1010.3
20260902003125 64 41 2.0 4.0 0.00 0.00 0.00 83 1010.3
20260902002624 64 9 4.0 5.0 0.00 0.00 0.00 82 1010.3
20260902002124 64 155 1.0 5.0 0.00 0.00 0.00 82 1010.3
20260902001625 64 84 5.0 5.0 0.00 0.00 0.00 83 1010.4
20260902001124 64 86 0.0 4.0 0.00 0.00 0.00 86 1010.3
20260902000624 64 86 0.0 4.0 0.00 0.00 0.00 83 1010.3
20260902000125 64 44 3.0 4.0 0.00 0.00 0.00 83 1010.3
20260901235625 64 183 1.0 3.0 0.00 0.00 0.00 82 1010.2
20260901235124 64 360 1.0 2.0 0.00 0.00 0.00 83 1010.4
20260901234225 65 155 2.0 4.0 0.00 0.00 0.00 82 1010.3
20260901233324 64 41 3.0 4.0 0.00 0.00 0.00 82 1010.4
20260901232825 64 74 3.0 4.0 0.00 0.00 0.00 81 1010.5
20260901232325 65 184 1.0 2.0 0.00 0.00 0.00 82 1010.4
20260901231825 65 218 2.0 4.0 0.00 0.00 0.00 81 1010.4
20260901231324 64 183 2.0 4.0 0.00 0.00 0.00 81 1010.5
20260901230825 64 360 1.0 4.0 0.00 0.00 0.00 84 1010.5
20260901230325 65 123 1.0 4.0 0.00 0.00 0.00 84 1010.5
20260901225825 65 67 2.0 4.0 0.00 0.00 0.00 82 1010.5
20260901225324 65 186 0.0 3.0 0.00 0.00 0.00 82 1010.5
20260901224825 65 177 1.0 3.0 0.00 0.00 0.00 82 1010.6
20260901224324 64 150 3.0 4.0 0.00 0.00 0.00 82 1010.6
20260901223824 64 161 2.0 4.0 0.00 0.00 0.00 81 1010.5
20260901223124 64 173 1.0 4.0 0.00 0.00 0.00 81 1010.6
20260901222625 65 114 2.0 4.0 0.00 0.00 0.00 81 1010.5
20260901222125 65 113 4.0 4.0 0.00 0.00 0.00 81 1010.5
20260901221625 65 160 0.0 3.0 0.00 0.00 0.00 82 1010.5
20260901221030 65 127 1.0 3.0 0.00 0.00 0.00 82 1010.5
20260901220525 65 331 0.0 2.0 0.00 0.00 0.00 83 1010.4
20260901220025 64 329 0.0 2.0 0.00 0.00 0.00 83 1010.4
20260901215524 64 293 2.0 3.0 0.00 0.00 0.00 83 1010.4
20260901215025 64 155 0.0 3.0 0.00 0.00 0.00 82 1010.3
20260901214324 64 153 1.0 4.0 0.00 0.00 0.00 82 1010.4
20260901213824 64 163 4.0 4.0 0.00 0.00 0.00 83 1010.4
20260901213325 64 119 0.0 2.0 0.00 0.00 0.00 85 1010.5
20260901212824 63 162 1.0 4.0 0.00 0.00 0.00 86 1010.5
20260901212124 63 180 2.0 5.0 0.00 0.00 0.00 86 1010.5
20260901211624 63 171 0.0 5.0 0.00 0.00 0.00 86 1010.5
20260901211124 64 175 1.0 4.0 0.00 0.00 0.00 85 1010.6
20260901210624 64 169 0.0 2.0 0.00 0.00 0.00 85 1010.6
20260901205925 64 120 2.0 3.0 0.00 0.00 0.00 82 1010.5
20260901205424 64 25 2.0 4.0 0.00 0.00 0.00 80 1010.4
20260901204925 64 38 2.0 5.0 0.00 0.00 0.00 80 1010.3
20260901204425 64 22 4.0 5.0 0.00 0.00 0.00 81 1010.3
20260901203925 64 35 3.0 5.0 0.00 0.00 0.00 81 1010.4
20260901203424 64 31 4.0 4.0 0.00 0.00 0.00 81 1010.4
20260901202924 64 57 2.0 4.0 0.00 0.00 0.00 81 1010.5
20260901202424 64 59 2.0 2.0 0.00 0.00 0.00 81 1010.5
20260901201925 64 42 1.0 3.0 0.00 0.00 0.00 81 1010.5
20260901201424 64 41 2.0 3.0 0.00 0.00 0.00 81 1010.5
20260901200924 64 42 2.0 3.0 0.00 0.00 0.00 81 1010.5
20260901200424 64 87 1.0 3.0 0.00 0.00 0.00 80 1010.5
20260901195924 64 98 1.0 2.0 0.00 0.00 0.00 80 1010.5
20260901195225 64 84 1.0 3.0 0.00 0.00 0.00 81 1010.5
20260901194724 64 84 2.0 3.0 0.00 0.00 0.00 81 1010.5
20260901194225 64 83 2.0 5.0 0.00 0.00 0.00 81 1010.5
20260901193724 64 29 1.0 5.0 0.00 0.00 0.00 81 1010.5
20260901193224 64 49 3.0 3.0 0.00 0.00 0.00 81 1010.5
20260901192725 64 175 0.0 1.0 0.00 0.00 0.00 81 1010.5
20260901192225 63 175 1.0 2.0 0.00 0.00 0.00 82 1010.5
20260901191724 63 175 1.0 2.0 0.00 0.00 0.00 82 1010.5
20260901191025 63 175 1.0 2.0 0.00 0.00 0.00 82 1010.5
20260901190525 63 175 1.0 2.0 0.00 0.00 0.00 83 1010.6
20260901190024 63 175 2.0 2.0 0.00 0.00 0.00 83 1010.6
20260901185525 63 175 1.0 2.0 0.00 0.00 0.00 83 1010.6